STARLINK Q

Last updated on Wed Apr 23 2025 00:02:06 GMT+0000 (Coordinated Universal Time)

1 63583U 25076Q 25112.75002315 -.00822096 21620-3 -21202-2 0 9991 2 63583 43.0021 346.1333 0002121 254.1879 347.7506 15.94215820 2373

Satellite not in orbit